Location: Écuvilly
(49.6505°N, 2.9206°E)
Time: 17:11:51
(UTC+00:00)

Cosmos 841 Rocket - Pass Details

Date: 17 November 2025
Orbit: 742 x 768 km, 74.0° (Epoch: 12 December)

Event Time Altitude Azimuth Distance (km) Brightness Sun altitude
Rises 18:06:45 0° 337° (NNW) 3,248 7.0 -19.8°
Reaches altitude 10° 18:09:09 10° 340° (NNW) 2,319 6.1 -20.2°
Maximum altitude 18:14:25 70° 64° (ENE) 819 3.4 -21.1°
Enters shadow 18:17:15 28° 142° (SE) 1,427 4.6 -21.5°
